Location: Newark
(49.5647°N, 8.2922°E)
Time: 06:55:43
(UTC+00:00)

Transit 4A - All Passes

Search period start: 25 February 2020 00:00
Search period end: 06 March 2020 00:00
Orbit: 872 x 973 km, 66.8° (Epoch: 24 February)

Date Brightness Start Highest point End Pass type
(mag) Time Alt. Az. Time Alt. Az. Time Alt. Az.
25 Feb - 00:18:19 10° WSW 00:23:58 47° NW 00:29:36 10° NNE visible
25 Feb - 02:07:52 10° WNW 02:11:48 18° NNW 02:15:44 10° NNE visible
25 Feb - 03:57:23 10° NNW 04:00:37 15° N 04:03:51 10° NE visible
25 Feb - 05:43:58 10° NNW 05:49:00 29° NE 05:54:03 10° E visible
25 Feb - 07:30:07 10° NW 07:35:59 81° WSW 07:41:54 10° SSE daylight
25 Feb - 09:18:05 10° WNW 09:21:26 16° WSW 09:24:49 10° SW daylight
25 Feb - 22:41:05 10° SSW 22:46:52 58° ESE 22:52:35 10° NE night (unlit)
26 Feb - 00:28:07 10° WSW 00:33:30 36° NW 00:38:52 10° NNE visible
26 Feb - 02:18:06 10° NW 02:21:38 16° NNW 02:25:10 10° NNE visible
26 Feb - 04:06:56 10° NNW 04:10:28 16° NNE 04:14:01 10° NE visible
26 Feb - 05:53:14 10° NNW 05:58:36 36° NE 06:04:00 10° ESE daylight
26 Feb - 07:39:31 10° NW 07:45:15 58° WSW 07:51:03 10° SSE daylight
26 Feb - 09:30:05 10° W 09:30:23 10° W 09:30:42 10° WSW daylight
26 Feb - 21:07:20 10° SE 21:10:41 16° ESE 21:14:00 10° ENE night (unlit)
26 Feb - 22:50:14 10° SSW 22:56:08 81° ESE 23:01:59 10° NE visible
27 Feb - 00:38:04 10° W 00:43:07 29° NW 00:48:09 10° NNE visible
27 Feb - 02:28:16 10° NW 02:31:30 15° N 02:34:44 10° NNE visible
27 Feb - 04:16:22 10° NNW 04:20:18 18° NNE 04:24:15 10° ENE visible
27 Feb - 06:02:30 10° NNW 06:08:08 47° NE 06:13:49 10° ESE daylight
27 Feb - 07:49:01 10° NW 07:54:28 41° WSW 07:59:58 10° S daylight
27 Feb - 21:15:12 10° SSE 21:19:42 23° ESE 21:24:09 10° ENE night (unlit)
27 Feb - 22:59:34 10° SW 23:05:29 75° NW 23:11:20 10° NE visible
28 Feb - 00:48:09 10° W 00:52:47 23° NNW 00:57:25 10° NNE visible
28 Feb - 02:38:18 10° NW 02:41:23 14° N 02:44:28 10° NNE visible
28 Feb - 04:25:43 10° NNW 04:30:05 21° NNE 04:34:28 10° ENE visible
28 Feb - 06:11:47 10° NNW 06:17:36 62° NE 06:23:28 10° SE daylight
28 Feb - 07:58:39 10° NW 08:03:36 29° WSW 08:08:35 10° SSW daylight
28 Feb - 21:23:37 10° S 21:28:47 33° ESE 21:33:55 10° NE night (unlit)
28 Feb - 23:09:07 10° SW 23:14:53 56° NW 23:20:38 10° NNE visible
29 Feb - 00:58:19 10° WNW 01:02:32 20° NNW 01:06:44 10° NNE visible
29 Feb - 02:48:09 10° NNW 02:51:16 14° N 02:54:23 10° NE visible
29 Feb - 04:35:01 10° NNW 04:39:47 25° NNE 04:44:36 10° E visible
29 Feb - 06:21:06 10° NW 06:26:59 84° NE 06:32:56 10° SE daylight
29 Feb - 08:08:31 10° WNW 08:12:40 20° WSW 08:16:51 10° SSW daylight
29 Feb - 21:32:21 10° S 21:37:57 46° ESE 21:43:29 10° NE night (unlit)
29 Feb - 23:18:49 10° WSW 23:24:23 42° NW 23:29:55 10° NNE visible
01 Mar - 01:08:32 10° WNW 01:12:19 17° NNW 01:16:06 10° NNE visible
01 Mar - 02:57:49 10° NNW 03:01:09 15° N 03:04:29 10° NE visible
01 Mar - 04:44:17 10° NNW 04:49:27 31° NE 04:54:39 10° E visible
01 Mar - 06:30:28 10° NW 06:36:19 72° WSW 06:42:13 10° SSE daylight
01 Mar - 08:18:54 10° WNW 08:21:39 14° WSW 08:24:26 10° SW daylight
01 Mar - 19:59:54 10° ESE 20:01:56 12° E 20:03:57 10° E night (unlit)
01 Mar - 21:41:20 10° SSW 21:47:10 66° ESE 21:52:57 10° NE night (unlit)
01 Mar - 23:28:41 10° WSW 23:33:56 33° NW 23:39:10 10° NNE visible
02 Mar - 01:18:45 10° NW 01:22:10 16° NNW 01:25:35 10° NNE visible
02 Mar - 03:07:20 10° NNW 03:11:00 17° NNE 03:14:41 10° NE visible
02 Mar - 04:53:33 10° NNW 04:59:01 39° NE 05:04:33 10° ESE visible
02 Mar - 06:39:54 10° NW 06:45:33 51° WSW 06:51:17 10° SSE daylight
02 Mar - 20:07:05 10° SE 20:10:54 18° ESE 20:14:41 10° ENE night (unlit)
02 Mar - 21:50:34 10° SW 21:56:28 90° SE 22:02:20 10° NE night (unlit)
02 Mar - 23:38:40 10° W 23:43:34 27° NNW 23:48:27 10° NNE visible
03 Mar - 01:28:53 10° NW 01:32:02 15° N 01:35:12 10° NNE visible
03 Mar - 03:16:43 10° NNW 03:20:48 19° NNE 03:24:55 10° ENE visible
03 Mar - 05:02:49 10° NNW 05:08:32 52° NE 05:14:18 10° ESE visible
03 Mar - 06:49:26 10° NW 06:54:44 36° WSW 07:00:06 10° S daylight
03 Mar - 20:15:11 10° SSE 20:19:57 26° ESE 20:24:40 10° NE night (unlit)
03 Mar - 21:59:58 10° SW 22:05:50 68° NW 22:11:40 10° NNE visible
03 Mar - 23:48:47 10° WNW 23:53:16 22° NNW 23:57:44 10° NNE visible
04 Mar - 01:38:51 10° NNW 01:41:55 14° N 01:44:59 10° NNE visible
04 Mar - 03:26:02 10° NNW 03:30:34 22° NNE 03:35:06 10° ENE visible
04 Mar - 05:12:07 10° NNW 05:17:58 69° NE 05:23:54 10° SE visible
04 Mar - 06:59:08 10° NW 07:03:51 26° WSW 07:08:37 10° SSW daylight
04 Mar - 20:23:43 10° S 20:29:03 37° ESE 20:34:22 10° NE night (unlit)
04 Mar - 22:09:34 10° WSW 22:15:17 50° NW 22:20:57 10° NNE visible
04 Mar - 23:58:59 10° WNW 00:03:02 19° NNW 00:07:04 10° NNE visible
05 Mar - 01:48:38 10° NNW 01:51:48 15° N 01:55:00 10° NE visible
05 Mar - 03:35:20 10° NNW 03:40:15 27° NNE 03:45:13 10° E visible
05 Mar - 05:21:27 10° NW 05:27:20 88° SW 05:33:18 10° SSE visible
05 Mar - 07:09:08 10° WNW 07:12:53 18° WSW 07:16:41 10° SW daylight
05 Mar - 20:32:33 10° SSW 20:38:14 52° ESE 20:43:53 10° NE night (unlit)
05 Mar - 22:19:20 10° WSW 22:24:47 38° NW 22:30:14 10° NNE visible
